TimeMST,TemperatureF,Dew PointF,Humidity,Sea Level PressureIn,VisibilityMPH,Wind Direction,Wind SpeedMPH,Gust SpeedMPH,PrecipitationIn,Events,Conditions,WindDirDegrees,DateUTC
12:15 AM,44.6,37.4,76,30.16,10.0,SW,5.8,-,N/A,,Clear,230,2012-11-18 07:15:00
12:55 AM,42.8,35.6,76,30.14,10.0,SW,5.8,-,N/A,,Clear,220,2012-11-18 07:55:00
1:15 AM,42.8,35.6,76,30.13,10.0,SSW,6.9,-,N/A,,Clear,210,2012-11-18 08:15:00
1:35 AM,42.8,37.4,81,30.13,10.0,SSW,8.1,-,N/A,,Clear,200,2012-11-18 08:35:00
1:55 AM,44.6,37.4,76,30.13,10.0,SSW,8.1,-,N/A,,Clear,210,2012-11-18 08:55:00
2:15 AM,44.6,37.4,76,30.13,10.0,SSW,6.9,-,N/A,,Clear,210,2012-11-18 09:15:00
2:35 AM,44.6,37.4,76,30.13,10.0,SSW,8.1,-,N/A,,Clear,210,2012-11-18 09:35:00
2:55 AM,44.6,37.4,76,30.13,10.0,SSW,6.9,-,N/A,,Clear,200,2012-11-18 09:55:00
3:15 AM,42.8,37.4,81,30.12,10.0,SSW,5.8,-,N/A,,Clear,210,2012-11-18 10:15:00
3:35 AM,44.6,37.4,76,30.12,10.0,SSW,5.8,-,N/A,,Clear,210,2012-11-18 10:35:00
3:55 AM,42.8,37.4,81,30.12,10.0,SSW,3.5,-,N/A,,Clear,210,2012-11-18 10:55:00
4:15 AM,44.6,37.4,76,30.12,10.0,South,4.6,-,N/A,,Clear,190,2012-11-18 11:15:00
4:35 AM,44.6,37.4,76,30.12,10.0,SSW,4.6,-,N/A,,Clear,210,2012-11-18 11:35:00
4:55 AM,42.8,37.4,81,30.12,10.0,SSW,5.8,-,N/A,,Clear,210,2012-11-18 11:55:00
5:15 AM,44.6,37.4,76,30.12,10.0,Calm,Calm,-,N/A,,Clear,0,2012-11-18 12:15:00
5:35 AM,44.6,37.4,76,30.12,10.0,Calm,Calm,-,N/A,,Clear,0,2012-11-18 12:35:00
5:55 AM,44.6,37.4,76,30.12,10.0,Calm,Calm,-,N/A,,Clear,0,2012-11-18 12:55:00
6:15 AM,44.6,35.6,71,30.13,10.0,Calm,Calm,-,N/A,,Clear,0,2012-11-18 13:15:00
6:35 AM,44.6,37.4,76,30.13,10.0,WNW,4.6,-,N/A,,Clear,300,2012-11-18 13:35:00
6:55 AM,42.8,35.6,76,30.14,10.0,West,3.5,-,N/A,,Clear,280,2012-11-18 13:55:00
7:15 AM,44.6,37.4,76,30.14,10.0,West,3.5,-,N/A,,Clear,270,2012-11-18 14:15:00
7:35 AM,44.6,37.4,76,30.14,10.0,West,4.6,-,N/A,,Clear,280,2012-11-18 14:35:00
7:55 AM,46.4,39.2,76,30.15,10.0,West,5.8,-,N/A,,Clear,270,2012-11-18 14:55:00
8:15 AM,48.2,39.2,71,30.15,10.0,Calm,Calm,-,N/A,,Clear,0,2012-11-18 15:15:00
8:35 AM,48.2,39.2,71,30.15,10.0,SSW,3.5,-,N/A,,Clear,210,2012-11-18 15:35:00
8:55 AM,51.8,42.8,71,30.16,10.0,SW,9.2,-,N/A,,Clear,230,2012-11-18 15:55:00
9:15 AM,55.4,42.8,63,30.16,10.0,WSW,15.0,-,N/A,,Clear,240,2012-11-18 16:15:00
9:35 AM,55.4,42.8,63,30.17,10.0,WSW,11.5,-,N/A,,Clear,240,2012-11-18 16:35:00
9:55 AM,57.2,39.2,51,30.17,10.0,WSW,16.1,-,N/A,,Clear,250,2012-11-18 16:55:00
10:15 AM,57.2,41.0,55,30.17,10.0,WSW,15.0,-,N/A,,Clear,240,2012-11-18 17:15:00
10:35 AM,57.2,41.0,55,30.17,10.0,WSW,19.6,-,N/A,,Clear,250,2012-11-18 17:35:00
10:55 AM,59.0,42.8,55,30.16,10.0,WSW,15.0,-,N/A,,Clear,250,2012-11-18 17:55:00
11:15 AM,60.8,44.6,55,30.16,10.0,WSW,19.6,-,N/A,,Clear,240,2012-11-18 18:15:00
11:35 AM,60.8,46.4,59,30.15,10.0,SW,19.6,23.0,N/A,,Clear,230,2012-11-18 18:35:00
11:55 AM,60.8,46.4,59,30.14,10.0,SW,20.7,-,N/A,,Clear,230,2012-11-18 18:55:00
12:15 PM,57.2,46.4,67,30.13,10.0,SW,18.4,-,N/A,,Partly Cloudy,230,2012-11-18 19:15:00
12:35 PM,55.4,46.4,72,30.13,10.0,WSW,18.4,-,N/A,,Mostly Cloudy,240,2012-11-18 19:35:00
12:55 PM,53.6,48.2,82,30.12,10.0,SW,15.0,-,0.01,,Partly Cloudy,220,2012-11-18 19:55:00
1:15 PM,55.4,48.2,77,30.12,10.0,WSW,13.8,-,N/A,,Clear,240,2012-11-18 20:15:00
1:35 PM,57.2,50.0,77,30.12,10.0,WSW,18.4,21.9,N/A,,Clear,250,2012-11-18 20:35:00
1:55 PM,57.2,48.2,72,30.11,10.0,WSW,13.8,-,N/A,,Clear,240,2012-11-18 20:55:00
2:15 PM,59.0,48.2,67,30.11,10.0,WSW,11.5,-,N/A,,Partly Cloudy,240,2012-11-18 21:15:00
2:35 PM,60.8,48.2,63,30.11,10.0,SW,13.8,-,N/A,,Clear,230,2012-11-18 21:35:00
2:55 PM,60.8,48.2,63,30.11,10.0,SW,13.8,-,N/A,,Partly Cloudy,220,2012-11-18 21:55:00
3:15 PM,59.0,48.2,67,30.11,10.0,SW,16.1,-,N/A,,Clear,220,2012-11-18 22:15:00
3:35 PM,60.8,48.2,63,30.11,10.0,SW,16.1,-,N/A,,Clear,220,2012-11-18 22:35:00
3:55 PM,59.0,46.4,63,30.11,10.0,SSW,15.0,-,N/A,,Clear,210,2012-11-18 22:55:00
4:15 PM,57.2,46.4,67,30.11,10.0,SSW,10.4,-,N/A,,Clear,210,2012-11-18 23:15:00
4:35 PM,55.4,46.4,72,30.11,10.0,SW,9.2,-,N/A,,Clear,220,2012-11-18 23:35:00
4:55 PM,55.4,44.6,67,30.12,10.0,SSW,11.5,-,N/A,,Clear,210,2012-11-18 23:55:00
5:15 PM,53.6,44.6,72,30.12,10.0,SSW,9.2,-,N/A,,Clear,200,2012-11-19 00:15:00
5:35 PM,51.8,44.6,76,30.13,10.0,SW,10.4,-,N/A,,Clear,230,2012-11-19 00:35:00
5:55 PM,51.8,44.6,76,30.13,10.0,SW,10.4,-,N/A,,Clear,220,2012-11-19 00:55:00
6:15 PM,51.8,42.8,71,30.14,10.0,SW,10.4,-,N/A,,Clear,220,2012-11-19 01:15:00
6:35 PM,51.8,44.6,76,30.13,10.0,SW,13.8,-,N/A,,Clear,220,2012-11-19 01:35:00
6:55 PM,51.8,44.6,76,30.13,10.0,SW,16.1,-,N/A,,Clear,230,2012-11-19 01:55:00
7:15 PM,48.2,42.8,82,30.14,10.0,WSW,13.8,-,N/A,,Clear,240,2012-11-19 02:15:00
7:35 PM,48.2,42.8,82,30.15,10.0,WSW,12.7,-,N/A,,Clear,240,2012-11-19 02:35:00
7:55 PM,48.2,42.8,82,30.16,10.0,WSW,11.5,-,N/A,,Clear,240,2012-11-19 02:55:00
8:15 PM,48.2,42.8,82,30.16,10.0,WSW,12.7,-,N/A,,Clear,240,2012-11-19 03:15:00
8:35 PM,48.2,42.8,82,30.16,10.0,WSW,11.5,-,N/A,,Clear,240,2012-11-19 03:35:00
8:55 PM,48.2,42.8,82,30.17,10.0,West,10.4,-,N/A,,Clear,260,2012-11-19 03:55:00
9:35 PM,46.4,41.0,81,30.17,10.0,WSW,10.4,-,N/A,,Clear,240,2012-11-19 04:35:00
10:15 PM,48.2,44.6,87,30.17,10.0,WSW,12.7,-,N/A,,Clear,250,2012-11-19 05:15:00
10:35 PM,48.2,44.6,87,30.17,10.0,WSW,15.0,-,N/A,,Clear,250,2012-11-19 05:35:00
10:55 PM,48.2,44.6,87,30.17,10.0,WSW,16.1,-,N/A,,Clear,250,2012-11-19 05:55:00
11:15 PM,48.2,44.6,87,30.18,0.8,West,16.1,-,N/A,,Overcast,260,2012-11-19 06:15:00
11:35 PM,48.2,46.4,93,30.17,1.0,WSW,16.1,-,N/A,,Overcast,250,2012-11-19 06:35:00
11:55 PM,48.2,46.4,93,30.17,2.0,WSW,13.8,-,N/A,,Overcast,250,2012-11-19 06:55:00